| time (UTC) | temp C | wind direction | speed KPH | gust KPH | rain 1hr cm | rain 24hr cm | rain mn cm | humidity % | barometer mb |
| 20260510164534 | 15 | 199 | 12.9 | 20.9 | 0.00 | 0.66 | 0.00 | 70 | 1010.3 |
| 20260510164029 | 15 | 262 | 9.7 | 30.6 | 0.00 | 0.66 | 0.00 | 73 | 1010.3 |
| 20260510163534 | 15 | 224 | 8.0 | 22.5 | 0.00 | 0.66 | 0.00 | 76 | 1010.3 |
| 20260510163031 | 15 | 243 | 14.5 | 22.5 | 0.00 | 0.66 | 0.00 | 72 | 1010.5 |
| 20260510162614 | 15 | 276 | 6.4 | 19.3 | 0.00 | 0.66 | 0.00 | 73 | 1010.3 |
| 20260510162142 | 15 | 216 | 9.7 | 24.1 | 0.00 | 0.66 | 0.00 | 72 | 1010.4 |
| 20260510161629 | 15 | 181 | 12.9 | 22.5 | 0.00 | 0.66 | 0.00 | 71 | 1010.4 |
| 20260510161050 | 15 | 201 | 12.9 | 24.1 | 0.00 | 0.66 | 0.00 | 72 | 1010.5 |
| 20260510160615 | 15 | 216 | 8.0 | 24.1 | 0.00 | 0.66 | 0.00 | 72 | 1010.4 |
| 20260510160104 | 15 | 205 | 14.5 | 24.1 | 0.00 | 0.66 | 0.00 | 71 | 1010.5 |
| 20260510155612 | 15 | 233 | 4.8 | 16.1 | 0.00 | 0.76 | 0.00 | 72 | 1010.3 |
| 20260510155047 | 15 | 260 | 9.7 | 20.9 | 0.00 | 0.76 | 0.00 | 73 | 1010.4 |
| 20260510154550 | 15 | 260 | 9.7 | 20.9 | 0.00 | 0.76 | 0.00 | 73 | 1010.6 |
| 20260510154046 | 15 | 185 | 9.7 | 24.1 | 0.00 | 0.76 | 0.00 | 73 | 1010.4 |
| 20260510153529 | 15 | 237 | 11.3 | 24.1 | 0.00 | 0.76 | 0.00 | 72 | 1010.6 |
| 20260510153052 | 15 | 251 | 12.9 | 22.5 | 0.00 | 0.76 | 0.00 | 72 | 1010.3 |
| 20260510152553 | 15 | 237 | 6.4 | 19.3 | 0.00 | 0.76 | 0.00 | 73 | 1010.3 |
| 20260510152028 | 15 | 238 | 6.4 | 19.3 | 0.00 | 0.76 | 0.00 | 73 | 1010.2 |
| 20260510151525 | 15 | 253 | 9.7 | 17.7 | 0.00 | 0.76 | 0.00 | 74 | 1010.2 |
| 20260510151049 | 15 | 210 | 9.7 | 16.1 | 0.00 | 0.76 | 0.00 | 74 | 1010.1 |
| 20260510150616 | 15 | 207 | 8.0 | 20.9 | 0.00 | 0.76 | 0.00 | 75 | 1010.2 |
| 20260510150106 | 15 | 272 | 12.9 | 20.9 | 0.00 | 0.76 | 0.00 | 74 | 1010.2 |
| 20260510145540 | 15 | 226 | 12.9 | 24.1 | 0.00 | 0.86 | 0.00 | 74 | 1010.0 |
| 20260510145031 | 15 | 241 | 9.7 | 22.5 | 0.00 | 0.86 | 0.00 | 75 | 1010.0 |
| 20260510144556 | 15 | 170 | 8.0 | 24.1 | 0.00 | 0.86 | 0.00 | 75 | 1009.9 |
| 20260510144032 | 15 | 172 | 9.7 | 19.3 | 0.00 | 0.86 | 0.00 | 76 | 1010.0 |
| 20260510143528 | 14 | 207 | 6.4 | 22.5 | 0.00 | 0.86 | 0.00 | 76 | 1009.9 |
| 20260510143058 | 14 | 233 | 11.3 | 22.5 | 0.00 | 0.86 | 0.00 | 76 | 1009.9 |
| 20260510142532 | 14 | 256 | 11.3 | 22.5 | 0.00 | 0.86 | 0.00 | 77 | 1009.9 |
| 20260510142027 | 14 | 256 | 8.0 | 20.9 | 0.00 | 0.86 | 0.00 | 81 | 1009.8 |
| 20260510141616 | 13 | 203 | 14.5 | 22.5 | 0.00 | 0.86 | 0.00 | 77 | 1010.0 |
| 20260510141055 | 13 | 204 | 8.0 | 22.5 | 0.00 | 0.86 | 0.00 | 78 | 1009.9 |
| 20260510140530 | 13 | 200 | 11.3 | 22.5 | 0.00 | 0.86 | 0.00 | 79 | 1009.8 |
| 20260510140026 | 13 | 201 | 9.7 | 22.5 | 0.00 | 0.86 | 0.00 | 80 | 1009.8 |
| 20260510135547 | 13 | 191 | 14.5 | 22.5 | 0.00 | 0.89 | 0.00 | 79 | 1010.0 |
| 20260510135024 | 13 | 22 | 3.2 | 16.1 | 0.00 | 0.89 | 0.00 | 82 | 1010.0 |
| 20260510134530 | 13 | 163 | 9.7 | 16.1 | 0.00 | 0.89 | 0.00 | 82 | 1010.0 |
| 20260510134055 | 13 | 238 | 6.4 | 17.7 | 0.00 | 0.89 | 0.00 | 82 | 1010.0 |
| 20260510133529 | 13 | 125 | 6.4 | 16.1 | 0.00 | 0.89 | 0.00 | 83 | 1009.9 |
| 20260510133101 | 12 | 229 | 8.0 | 16.1 | 0.00 | 0.89 | 0.00 | 85 | 1010.0 |
| 20260510132533 | 12 | 210 | 6.4 | 20.9 | 0.00 | 0.89 | 0.00 | 88 | 1009.9 |
| 20260510132027 | 12 | 241 | 9.7 | 20.9 | 0.00 | 0.89 | 0.00 | 87 | 1010.0 |
| 20260510131617 | 12 | 222 | 9.7 | 17.7 | 0.00 | 0.89 | 0.00 | 87 | 1010.0 |
| 20260510131032 | 12 | 183 | 11.3 | 19.3 | 0.00 | 0.89 | 0.00 | 89 | 1009.9 |
| 20260510130527 | 12 | 222 | 6.4 | 16.1 | 0.00 | 0.89 | 0.00 | 92 | 1009.9 |
| 20260510130147 | 11 | 183 | 4.8 | 9.7 | 0.00 | 0.89 | 0.00 | 95 | 1009.7 |
| 20260510125538 | 11 | 171 | 4.8 | 9.7 | 0.00 | 0.97 | 0.00 | 98 | 1009.9 |
| 20260510125108 | 10 | 179 | 3.2 | 6.4 | 0.00 | 0.97 | 0.00 | 99 | 1009.7 |
| 20260510124612 | 10 | 159 | 1.6 | 8.0 | 0.00 | 0.97 | 0.00 | 99 | 1009.7 |
| 20260510124054 | 9 | 148 | 1.6 | 8.0 | 0.00 | 0.97 | 0.00 | 99 | 1009.6 |
| 20260510123550 | 9 | 162 | 1.6 | 3.2 | 0.00 | 0.97 | 0.00 | 99 | 1009.7 |
| 20260510123054 | 9 | 160 | 1.6 | 4.8 | 0.00 | 0.97 | 0.00 | 99 | 1009.7 |
| 20260510122547 | 8 | 179 | 1.6 | 4.8 | 0.00 | 0.97 | 0.00 | 99 | 1009.6 |
| 20260510122050 | 8 | 199 | 1.6 | 6.4 | 0.00 | 0.97 | 0.00 | 99 | 1009.6 |
| 20260510121545 | 8 | 187 | 3.2 | 6.4 | 0.00 | 0.97 | 0.00 | 99 | 1009.6 |
| 20260510121041 | 8 | 163 | 1.6 | 6.4 | 0.00 | 0.97 | 0.00 | 99 | 1009.6 |
| 20260510120606 | 8 | 208 | 1.6 | 8.0 | 0.00 | 0.97 | 0.00 | 99 | 1009.6 |
| 20260510120043 | 8 | 244 | 1.6 | 8.0 | 0.00 | 0.97 | 0.00 | 99 | 1009.7 |
| 20260510115536 | 8 | 186 | 4.8 | 11.3 | 0.00 | 1.02 | 0.00 | 99 | 1009.6 |
| 20260510115033 | 8 | 208 | 6.4 | 11.3 | 0.00 | 1.02 | 0.00 | 99 | 1009.7 |
| 20260510114528 | 8 | 187 | 1.6 | 8.0 | 0.00 | 1.02 | 0.00 | 99 | 1009.6 |
| 20260510114119 | 8 | 201 | 3.2 | 8.0 | 0.00 | 1.02 | 0.00 | 99 | 1009.7 |
| 20260510113533 | 8 | 176 | 3.2 | 8.0 | 0.00 | 1.02 | 0.00 | 99 | 1009.7 |
| 20260510113031 | 8 | 187 | 1.6 | 8.0 | 0.00 | 1.02 | 0.00 | 99 | 1009.7 |
| 20260510112554 | 8 | 217 | 4.8 | 8.0 | 0.00 | 1.02 | 0.00 | 99 | 1009.7 |
| 20260510112025 | 8 | 161 | 1.6 | 8.0 | 0.00 | 1.02 | 0.00 | 99 | 1009.7 |
| 20260510111551 | 8 | 253 | 3.2 | 8.0 | 0.00 | 1.02 | 0.00 | 99 | 1009.6 |
| 20260510111117 | 8 | 183 | 4.8 | 8.0 | 0.00 | 1.02 | 0.00 | 99 | 1009.6 |
| 20260510110532 | 8 | 189 | 3.2 | 9.7 | 0.00 | 1.02 | 0.00 | 99 | 1009.6 |
| 20260510110030 | 8 | 148 | 3.2 | 6.4 | 0.00 | 1.02 | 0.00 | 99 | 1009.5 |
| 20260510105550 | 8 | 166 | 3.2 | 6.4 | 0.00 | 1.24 | 0.00 | 99 | 1009.4 |
| 20260510105058 | 8 | 166 | 3.2 | 8.0 | 0.00 | 1.24 | 0.00 | 99 | 1009.3 |
| 20260510104533 | 8 | 164 | 4.8 | 9.7 | 0.00 | 1.24 | 0.00 | 99 | 1009.1 |
| 20260510104138 | 8 | 185 | 4.8 | 9.7 | 0.00 | 1.24 | 0.00 | 99 | 1009.0 |
| 20260510103605 | 8 | 133 | 1.6 | 11.3 | 0.00 | 1.24 | 0.00 | 99 | 1009.0 |
| 20260510103041 | 8 | 170 | 6.4 | 11.3 | 0.00 | 1.24 | 0.00 | 99 | 1009.0 |
| 20260510102609 | 8 | 179 | 3.2 | 8.0 | 0.00 | 1.24 | 0.00 | 99 | 1008.9 |
| 20260510102043 | 8 | 191 | 4.8 | 8.0 | 0.00 | 1.24 | 0.00 | 98 | 1008.6 |
| 20260510101650 | 8 | 169 | 3.2 | 8.0 | 0.00 | 1.24 | 0.00 | 98 | 1008.9 |
| 20260510101044 | 8 | 196 | 3.2 | 8.0 | 0.00 | 1.24 | 0.00 | 98 | 1008.7 |
| 20260510100633 | 8 | 172 | 3.2 | 8.0 | 0.00 | 1.24 | 0.00 | 98 | 1008.7 |
| 20260510100050 | 8 | 196 | 3.2 | 11.3 | 0.00 | 1.24 | 0.00 | 98 | 1008.7 |
| 20260510095544 | 8 | 198 | 4.8 | 11.3 | 0.00 | 1.37 | 0.00 | 98 | 1008.7 |
| 20260510095041 | 8 | 195 | 4.8 | 8.0 | 0.00 | 1.37 | 0.00 | 99 | 1008.5 |
| 20260510094611 | 8 | 195 | 1.6 | 6.4 | 0.00 | 1.37 | 0.00 | 99 | 1008.3 |
| 20260510094025 | 8 | 187 | 3.2 | 6.4 | 0.00 | 1.37 | 0.00 | 99 | 1008.1 |
| 20260510093609 | 8 | 143 | 3.2 | 8.0 | 0.00 | 1.37 | 0.00 | 98 | 1008.2 |
| 20260510093052 | 8 | 195 | 1.6 | 8.0 | 0.00 | 1.37 | 0.00 | 98 | 1008.2 |
| 20260510092639 | 8 | 204 | 3.2 | 8.0 | 0.00 | 1.37 | 0.00 | 98 | 1008.1 |
| 20260510092032 | 8 | 131 | 4.8 | 12.9 | 0.00 | 1.37 | 0.00 | 98 | 1007.9 |
| 20260510091529 | 8 | 166 | 8.0 | 12.9 | 0.00 | 1.37 | 0.00 | 98 | 1007.7 |
| 20260510091058 | 8 | 160 | 4.8 | 12.9 | 0.00 | 1.37 | 0.00 | 98 | 1007.9 |
| 20260510090532 | 8 | 174 | 3.2 | 11.3 | 0.00 | 1.37 | 0.00 | 98 | 1008.0 |
| 20260510090059 | 8 | 233 | 3.2 | 9.7 | 0.00 | 1.37 | 0.00 | 98 | 1008.0 |
| 20260510085533 | 8 | 162 | 3.2 | 9.7 | 0.00 | 1.37 | 0.00 | 98 | 1007.8 |
| 20260510085153 | 8 | 187 | 4.8 | 11.3 | 0.00 | 1.37 | 0.00 | 98 | 1007.9 |
| 20260510084546 | 8 | 188 | 4.8 | 11.3 | 0.00 | 1.37 | 0.00 | 98 | 1008.0 |
| 20260510084042 | 8 | 164 | 4.8 | 11.3 | 0.00 | 1.37 | 0.00 | 98 | 1008.0 |
| 20260510083539 | 8 | 187 | 3.2 | 8.0 | 0.00 | 1.37 | 0.00 | 98 | 1008.0 |
| 20260510083036 | 8 | 259 | 3.2 | 14.5 | 0.00 | 1.37 | 0.00 | 98 | 1008.3 |
| 20260510082529 | 8 | 224 | 6.4 | 14.5 | 0.00 | 1.37 | 0.00 | 98 | 1008.2 |
| 20260510082025 | 8 | 239 | 8.0 | 12.9 | 0.00 | 1.37 | 0.00 | 98 | 1008.4 |
| 20260510081546 | 8 | 213 | 4.8 | 12.9 | 0.00 | 1.37 | 0.00 | 98 | 1008.5 |
| 20260510081042 | 8 | 222 | 4.8 | 11.3 | 0.00 | 1.37 | 0.00 | 99 | 1008.4 |
| 20260510080610 | 8 | 212 | 4.8 | 8.0 | 0.00 | 1.37 | 0.00 | 99 | 1008.5 |
| 20260510080059 | 8 | 219 | 4.8 | 11.3 | 0.00 | 1.37 | 0.00 | 99 | 1008.6 |
| 20260510075607 | 8 | 208 | 6.4 | 9.7 | 0.00 | 1.37 | 0.00 | 99 | 1008.6 |
| 20260510075042 | 8 | 222 | 4.8 | 12.9 | 0.00 | 1.37 | 0.00 | 98 | 1008.6 |
| 20260510074540 | 8 | 222 | 4.8 | 12.9 | 0.00 | 1.37 | 0.00 | 98 | 1008.6 |
| 20260510074036 | 8 | 236 | 6.4 | 14.5 | 0.00 | 1.37 | 0.00 | 98 | 1008.6 |
| 20260510073532 | 7 | 226 | 4.8 | 11.3 | 0.00 | 1.37 | 0.00 | 98 | 1008.5 |
| 20260510073101 | 7 | 225 | 4.8 | 11.3 | 0.00 | 1.37 | 0.00 | 98 | 1008.6 |
| 20260510072534 | 7 | 231 | 3.2 | 11.3 | 0.00 | 1.37 | 0.00 | 98 | 1008.4 |
| 20260510072030 | 7 | 251 | 6.4 | 11.3 | 0.00 | 1.37 | 0.00 | 98 | 1008.4 |
| 20260510071527 | 7 | 239 | 4.8 | 11.3 | 0.00 | 1.37 | 0.00 | 98 | 1008.3 |
| 20260510071052 | 7 | 238 | 4.8 | 11.3 | 0.00 | 1.37 | 0.00 | 98 | 1008.4 |
| 20260510070549 | 7 | 246 | 3.2 | 9.7 | 0.00 | 1.37 | 0.00 | 98 | 1008.3 |
| 20260510070053 | 7 | 219 | 3.2 | 9.7 | 0.00 | 1.37 | 0.00 | 98 | 1008.2 |
| 20260510065619 | 7 | 247 | 4.8 | 9.7 | 0.00 | 1.37 | 0.00 | 98 | 1008.1 |
| 20260510065106 | 7 | 191 | 3.2 | 8.0 | 0.00 | 1.37 | 0.00 | 98 | 1007.9 |
| 20260510064541 | 7 | 190 | 3.2 | 8.0 | 0.00 | 1.37 | 0.00 | 98 | 1008.1 |
| 20260510064111 | 7 | 214 | 4.8 | 11.3 | 0.00 | 1.37 | 0.00 | 98 | 1008.0 |
| 20260510063553 | 7 | 226 | 1.6 | 11.3 | 0.00 | 1.37 | 0.00 | 98 | 1008.1 |
| 20260510063029 | 7 | 193 | 3.2 | 11.3 | 0.00 | 1.37 | 0.00 | 98 | 1007.9 |
| 20260510062618 | 7 | 224 | 6.4 | 11.3 | 0.00 | 1.37 | 0.00 | 98 | 1008.0 |
| 20260510062031 | 7 | 210 | 3.2 | 8.0 | 0.00 | 1.37 | 0.00 | 98 | 1008.2 |
| 20260510061528 | 7 | 219 | 4.8 | 11.3 | 0.00 | 1.37 | 0.00 | 98 | 1008.1 |
| 20260510061048 | 7 | 225 | 4.8 | 11.3 | 0.00 | 1.37 | 0.00 | 98 | 1008.1 |
| 20260510060550 | 7 | 258 | 3.2 | 11.3 | 0.00 | 1.37 | 0.00 | 98 | 1008.1 |
| 20260510060101 | 8 | 216 | 6.4 | 11.3 | 0.00 | 1.37 | 0.00 | 98 | 1008.2 |
| 20260510055534 | 8 | 195 | 4.8 | 11.3 | 0.00 | 1.37 | 0.00 | 98 | 1008.2 |
| 20260510055103 | 8 | 235 | 6.4 | 12.9 | 0.00 | 1.37 | 0.00 | 98 | 1008.3 |
| 20260510054612 | 8 | 146 | 4.8 | 9.7 | 0.00 | 1.37 | 0.00 | 98 | 1008.4 |
| 20260510054059 | 8 | 206 | 4.8 | 14.5 | 0.00 | 1.37 | 0.00 | 98 | 1008.5 |
| 20260510053534 | 8 | 224 | 4.8 | 16.1 | 0.00 | 1.37 | 0.00 | 98 | 1008.5 |
| 20260510053100 | 8 | 152 | 8.0 | 16.1 | 0.00 | 1.37 | 0.00 | 98 | 1008.5 |
| 20260510052605 | 8 | 190 | 4.8 | 12.9 | 0.00 | 1.37 | 0.00 | 98 | 1008.3 |
| 20260510052038 | 8 | 218 | 8.0 | 14.5 | 0.00 | 1.37 | 0.00 | 98 | 1008.4 |
| 20260510051535 | 8 | 149 | 4.8 | 14.5 | 0.00 | 1.37 | 0.00 | 98 | 1008.4 |
| 20260510051030 | 8 | 153 | 8.0 | 11.3 | 0.00 | 1.37 | 0.00 | 98 | 1008.5 |
| 20260510050524 | 8 | 222 | 4.8 | 11.3 | 0.00 | 1.37 | 0.00 | 98 | 1008.4 |
| 20260510050050 | 8 | 189 | 3.2 | 11.3 | 0.00 | 1.37 | 0.00 | 98 | 1008.4 |
| 20260510045613 | 8 | 221 | 6.4 | 16.1 | 0.00 | 1.37 | 0.00 | 98 | 1008.5 |
| 20260510045117 | 8 | 172 | 4.8 | 16.1 | 0.00 | 1.37 | 0.00 | 98 | 1008.5 |
| 20260510044603 | 8 | 186 | 8.0 | 14.5 | 0.00 | 1.37 | 0.00 | 98 | 1008.5 |
| 20260510044132 | 8 | 189 | 4.8 | 12.9 | 0.00 | 1.37 | 0.00 | 98 | 1008.4 |
| 20260510043548 | 8 | 174 | 4.8 | 11.3 | 0.00 | 1.37 | 0.00 | 98 | 1008.3 |
| 20260510043146 | 8 | 164 | 1.6 | 8.0 | 0.00 | 1.37 | 0.00 | 98 | 1008.3 |
| 20260510042537 | 8 | 153 | 3.2 | 8.0 | 0.00 | 1.37 | 0.00 | 98 | 1008.4 |
| 20260510042104 | 8 | 168 | 4.8 | 6.4 | 0.00 | 1.37 | 0.00 | 98 | 1008.4 |
| 20260510041539 | 8 | 196 | 3.2 | 6.4 | 0.00 | 1.37 | 0.00 | 98 | 1008.5 |
| 20260510041034 | 8 | 167 | 3.2 | 8.0 | 0.00 | 1.37 | 0.00 | 98 | 1008.4 |
| 20260510040531 | 8 | 158 | 1.6 | 6.4 | 0.00 | 1.37 | 0.00 | 98 | 1008.5 |
| 20260510040029 | 8 | 158 | 4.8 | 6.4 | 0.00 | 1.37 | 0.00 | 98 | 1008.3 |
| 20260510035638 | 8 | 139 | 3.2 | 8.0 | 0.00 | 1.37 | 0.00 | 98 | 1008.2 |
| 20260510035030 | 8 | 125 | 4.8 | 6.4 | 0.00 | 1.37 | 0.00 | 98 | 1008.2 |
| 20260510034525 | 8 | 143 | 3.2 | 9.7 | 0.00 | 1.37 | 0.00 | 98 | 1008.3 |
| 20260510034111 | 8 | 146 | 4.8 | 9.7 | 0.00 | 1.37 | 0.00 | 98 | 1008.3 |
| 20260510033547 | 8 | 158 | 3.2 | 9.7 | 0.00 | 1.37 | 0.00 | 98 | 1008.5 |
| 20260510033045 | 8 | 149 | 4.8 | 9.7 | 0.00 | 1.37 | 0.00 | 98 | 1008.5 |
| 20260510032541 | 8 | 170 | 4.8 | 9.7 | 0.00 | 1.37 | 0.00 | 98 | 1008.5 |
| 20260510032113 | 8 | 142 | 4.8 | 9.7 | 0.00 | 1.37 | 0.00 | 98 | 1008.4 |
| 20260510031554 | 8 | 130 | 4.8 | 9.7 | 0.00 | 1.37 | 0.00 | 98 | 1008.4 |
| 20260510031030 | 8 | 158 | 3.2 | 9.7 | 0.00 | 1.37 | 0.00 | 98 | 1008.4 |
| 20260510030559 | 8 | 155 | 3.2 | 9.7 | 0.00 | 1.37 | 0.00 | 98 | 1008.5 |
| 20260510030035 | 8 | 147 | 4.8 | 9.7 | 0.00 | 1.37 | 0.00 | 98 | 1008.4 |
| 20260510025525 | 8 | 132 | 4.8 | 8.0 | 0.00 | 1.37 | 0.00 | 98 | 1008.4 |
| 20260510025050 | 8 | 145 | 4.8 | 11.3 | 0.00 | 1.37 | 0.00 | 98 | 1008.5 |
| 20260510024546 | 8 | 160 | 4.8 | 12.9 | 0.00 | 1.37 | 0.00 | 98 | 1008.6 |
| 20260510024043 | 8 | 126 | 4.8 | 9.7 | 0.00 | 1.37 | 0.00 | 98 | 1008.5 |
| 20260510023540 | 8 | 143 | 4.8 | 9.7 | 0.00 | 1.37 | 0.00 | 98 | 1008.5 |
| 20260510022531 | 8 | 148 | 4.8 | 8.0 | 0.00 | 1.37 | 0.00 | 98 | 1008.6 |
| 20260510022100 | 8 | 165 | 4.8 | 9.7 | 0.00 | 1.37 | 0.00 | 98 | 1008.5 |
| 20260510021534 | 8 | 171 | 4.8 | 11.3 | 0.00 | 1.37 | 0.00 | 97 | 1008.5 |
| 20260510021104 | 8 | 139 | 4.8 | 11.3 | 0.00 | 1.37 | 0.00 | 97 | 1008.5 |
| 20260510020536 | 8 | 141 | 6.4 | 12.9 | 0.00 | 1.37 | 0.00 | 97 | 1008.4 |
| 20260510020032 | 8 | 127 | 6.4 | 12.9 | 0.00 | 1.37 | 0.00 | 97 | 1008.3 |
| 20260510015528 | 8 | 123 | 4.8 | 14.5 | 0.00 | 1.37 | 0.00 | 97 | 1008.4 |
| 20260510015051 | 8 | 125 | 4.8 | 14.5 | 0.00 | 1.37 | 0.00 | 97 | 1008.6 |
| 20260510014547 | 8 | 154 | 3.2 | 12.9 | 0.00 | 1.37 | 0.00 | 97 | 1008.7 |
| 20260510014051 | 8 | 152 | 8.0 | 12.9 | 0.00 | 1.37 | 0.00 | 97 | 1008.6 |
| 20260510013548 | 8 | 133 | 8.0 | 12.9 | 0.00 | 1.37 | 0.00 | 97 | 1008.7 |
| 20260510013058 | 8 | 138 | 6.4 | 12.9 | 0.00 | 1.37 | 0.00 | 97 | 1008.7 |
| 20260510012620 | 8 | 145 | 8.0 | 11.3 | 0.00 | 1.37 | 0.00 | 97 | 1009.0 |
| 20260510012034 | 8 | 154 | 6.4 | 12.9 | 0.00 | 1.37 | 0.00 | 97 | 1008.9 |
| 20260510011602 | 8 | 180 | 4.8 | 12.9 | 0.00 | 1.37 | 0.00 | 97 | 1008.8 |
| 20260510011036 | 8 | 143 | 6.4 | 12.9 | 0.00 | 1.37 | 0.00 | 97 | 1008.7 |
| 20260510010625 | 8 | 158 | 4.8 | 11.3 | 0.00 | 1.37 | 0.00 | 97 | 1008.6 |
| 20260510010039 | 8 | 125 | 4.8 | 11.3 | 0.00 | 1.37 | 0.00 | 97 | 1008.5 |
| 20260510005533 | 8 | 137 | 3.2 | 4.8 | 0.00 | 1.37 | 0.00 | 97 | 1008.5 |
| 20260510005028 | 8 | 154 | 1.6 | 11.3 | 0.00 | 1.37 | 0.00 | 97 | 1008.3 |
| 20260510004614 | 8 | 148 | 4.8 | 11.3 | 0.00 | 1.37 | 0.00 | 97 | 1008.1 |
| 20260510004101 | 8 | 122 | 1.6 | 11.3 | 0.00 | 1.37 | 0.00 | 97 | 1008.1 |
| 20260510003537 | 8 | 186 | 4.8 | 12.9 | 0.00 | 1.37 | 0.00 | 97 | 1007.9 |
| 20260510003033 | 8 | 131 | 8.0 | 14.5 | 0.00 | 1.37 | 0.00 | 97 | 1008.0 |
| 20260510002528 | 8 | 160 | 6.4 | 12.9 | 0.00 | 1.37 | 0.00 | 97 | 1008.1 |
| 20260510002052 | 8 | 151 | 8.0 | 14.5 | 0.00 | 1.37 | 0.00 | 97 | 1008.0 |
| 20260510001548 | 8 | 154 | 6.4 | 16.1 | 0.00 | 1.37 | 0.00 | 96 | 1007.8 |
| 20260510001052 | 8 | 112 | 4.8 | 14.5 | 0.00 | 1.37 | 0.00 | 96 | 1007.7 |
| 20260510000547 | 8 | 129 | 6.4 | 14.5 | 0.00 | 1.37 | 0.00 | 96 | 1007.8 |
| 20260510000045 | 8 | 142 | 6.4 | 11.3 | 0.00 | 1.37 | 0.00 | 96 | 1007.7 |
| 20260509235555 | 8 | 152 | 4.8 | 9.7 | 0.00 | 1.37 | 1.37 | 96 | 1007.6 |
| 20260509235030 | 8 | 138 | 6.4 | 9.7 | 0.00 | 1.37 | 1.37 | 96 | 1007.6 |
| 20260509234601 | 8 | 195 | 4.8 | 9.7 | 0.00 | 1.37 | 1.37 | 96 | 1007.7 |
| 20260509234109 | 8 | 156 | 1.6 | 12.9 | 0.00 | 1.37 | 1.37 | 95 | 1007.8 |
| 20260509233544 | 8 | 230 | 4.8 | 12.9 | 0.00 | 1.37 | 1.37 | 95 | 1007.7 |
| 20260509233041 | 8 | 188 | 4.8 | 12.9 | 0.00 | 1.37 | 1.37 | 95 | 1007.7 |
| 20260509232536 | 8 | 208 | 3.2 | 14.5 | 0.00 | 1.37 | 1.37 | 95 | 1007.7 |
| 20260509232140 | 8 | 194 | 6.4 | 19.3 | 0.00 | 1.37 | 1.37 | 95 | 1007.5 |
| 20260509231656 | 8 | 149 | 8.0 | 19.3 | 0.00 | 1.37 | 1.37 | 95 | 1007.4 |
| 20260509231048 | 8 | 147 | 11.3 | 19.3 | 0.00 | 1.37 | 1.37 | 95 | 1007.5 |
| 20260509230543 | 8 | 168 | 9.7 | 19.3 | 0.00 | 1.37 | 1.37 | 95 | 1007.6 |
| 20260509230040 | 8 | 154 | 9.7 | 16.1 | 0.00 | 1.37 | 1.37 | 95 | 1007.6 |
| 20260509225609 | 8 | 153 | 9.7 | 14.5 | 0.00 | 1.37 | 1.37 | 95 | 1007.6 |
| 20260509225054 | 8 | 136 | 8.0 | 14.5 | 0.00 | 1.37 | 1.37 | 95 | 1007.7 |
| 20260509224619 | 8 | 174 | 4.8 | 17.7 | 0.00 | 1.37 | 1.37 | 95 | 1007.8 |
| 20260509224031 | 8 | 173 | 6.4 | 17.7 | 0.00 | 1.37 | 1.37 | 95 | 1007.7 |
| 20260509223641 | 8 | 138 | 3.2 | 17.7 | 0.00 | 1.37 | 1.37 | 95 | 1007.7 |
| 20260509223037 | 8 | 143 | 4.8 | 17.7 | 0.00 | 1.37 | 1.37 | 95 | 1007.6 |
| 20260509222558 | 8 | 156 | 8.0 | 14.5 | 0.00 | 1.37 | 1.37 | 95 | 1007.6 |
| 20260509222036 | 8 | 155 | 4.8 | 14.5 | 0.00 | 1.37 | 1.37 | 95 | 1007.6 |
| 20260509221604 | 8 | 174 | 4.8 | 12.9 | 0.00 | 1.37 | 1.37 | 95 | 1007.7 |
| 20260509221035 | 8 | 157 | 6.4 | 12.9 | 0.00 | 1.37 | 1.37 | 95 | 1007.8 |
| 20260509220605 | 8 | 164 | 6.4 | 11.3 | 0.00 | 1.37 | 1.37 | 94 | 1007.5 |
| 20260509220114 | 8 | 154 | 8.0 | 12.9 | 0.00 | 1.37 | 1.37 | 94 | 1007.6 |
| 20260509215558 | 8 | 178 | 6.4 | 19.3 | 0.00 | 1.37 | 1.37 | 94 | 1007.5 |
| 20260509215107 | 8 | 177 | 8.0 | 19.3 | 0.00 | 1.37 | 1.37 | 94 | 1007.5 |
| 20260509214637 | 8 | 180 | 4.8 | 12.9 | 0.00 | 1.37 | 1.37 | 94 | 1007.6 |
| 20260509214029 | 8 | 172 | 4.8 | 12.9 | 0.00 | 1.37 | 1.37 | 94 | 1007.8 |
| 20260509213550 | 8 | 160 | 4.8 | 12.9 | 0.00 | 1.37 | 1.37 | 94 | 1007.7 |
| 20260509213100 | 8 | 204 | 4.8 | 16.1 | 0.00 | 1.37 | 1.37 | 94 | 1007.8 |
| 20260509212533 | 8 | 255 | 4.8 | 16.1 | 0.00 | 1.37 | 1.37 | 94 | 1007.8 |
| 20260509212027 | 8 | 199 | 4.8 | 19.3 | 0.03 | 1.37 | 1.37 | 95 | 1007.8 |
| 20260509211552 | 8 | 192 | 8.0 | 19.3 | 0.03 | 1.37 | 1.37 | 94 | 1007.9 |
| 20260509211027 | 8 | 211 | 8.0 | 25.7 | 0.03 | 1.37 | 1.37 | 94 | 1008.0 |
| 20260509210552 | 8 | 144 | 8.0 | 17.7 | 0.05 | 1.37 | 1.37 | 94 | 1007.9 |
| 20260509210056 | 8 | 254 | 9.7 | 16.1 | 0.05 | 1.37 | 1.37 | 95 | 1007.9 |
| 20260509205621 | 8 | 147 | 6.4 | 19.3 | 0.08 | 1.37 | 1.37 | 96 | 1008.0 |
| 20260509205033 | 8 | 218 | 8.0 | 16.1 | 0.10 | 1.37 | 1.37 | 96 | 1008.1 |
| 20260509204603 | 8 | 168 | 6.4 | 16.1 | 0.13 | 1.37 | 1.37 | 96 | 1008.3 |
| 20260509204037 | 8 | 224 | 6.4 | 12.9 | 0.13 | 1.37 | 1.37 | 97 | 1008.3 |
| 20260509203607 | 8 | 202 | 4.8 | 22.5 | 0.15 | 1.37 | 1.37 | 97 | 1008.3 |
| 20260509203042 | 8 | 192 | 12.9 | 22.5 | 0.18 | 1.37 | 1.37 | 98 | 1008.4 |
| 20260509202609 | 8 | 214 | 9.7 | 24.1 | 0.20 | 1.37 | 1.37 | 98 | 1008.5 |
| 20260509202043 | 8 | 174 | 8.0 | 22.5 | 0.20 | 1.35 | 1.35 | 98 | 1008.4 |
| 20260509201649 | 8 | 176 | 4.8 | 22.5 | 0.23 | 1.35 | 1.35 | 98 | 1008.6 |
| 20260509201136 | 7 | 198 | 9.7 | 14.5 | 0.25 | 1.35 | 1.35 | 98 | 1008.5 |
| 20260509200528 | 7 | 154 | 6.4 | 14.5 | 0.25 | 1.32 | 1.32 | 98 | 1008.6 |
| 20260509200036 | 7 | 233 | 6.4 | 9.7 | 0.28 | 1.32 | 1.32 | 98 | 1008.7 |
| 20260509195530 | 7 | 160 | 3.2 | 8.0 | 0.25 | 1.30 | 1.30 | 98 | 1008.6 |
| 20260509195053 | 7 | 150 | 4.8 | 9.7 | 0.25 | 1.27 | 1.27 | 98 | 1008.5 |
| 20260509194554 | 7 | 156 | 3.2 | 11.3 | 0.23 | 1.24 | 1.24 | 98 | 1008.7 |
| 20260509194102 | 6 | 129 | 6.4 | 12.9 | 0.23 | 1.24 | 1.24 | 98 | 1008.7 |
| 20260509193538 | 6 | 118 | 4.8 | 12.9 | 0.23 | 1.22 | 1.22 | 98 | 1008.7 |
| 20260509193034 | 6 | 131 | 4.8 | 11.3 | 0.20 | 1.19 | 1.19 | 98 | 1008.7 |
| 20260509192526 | 6 | 127 | 4.8 | 11.3 | 0.18 | 1.17 | 1.17 | 98 | 1008.6 |
| 20260509192049 | 6 | 125 | 3.2 | 11.3 | 0.15 | 1.12 | 1.12 | 98 | 1008.5 |
| 20260509191637 | 6 | 119 | 3.2 | 11.3 | 0.15 | 1.12 | 1.12 | 98 | 1008.6 |
| 20260509191121 | 6 | 144 | 4.8 | 9.7 | 0.13 | 1.09 | 1.09 | 98 | 1008.8 |
| 20260509190534 | 6 | 132 | 3.2 | 6.4 | 0.10 | 1.07 | 1.07 | 98 | 1008.5 |
| 20260509190031 | 6 | 131 | 3.2 | 6.4 | 0.10 | 1.04 | 1.04 | 98 | 1008.6 |
| 20260509185559 | 6 | 94 | 3.2 | 4.8 | 0.10 | 1.04 | 1.04 | 98 | 1008.7 |
| 20260509185033 | 6 | 91 | 3.2 | 6.4 | 0.08 | 1.02 | 1.02 | 98 | 1008.9 |
| 20260509184603 | 6 | 117 | 3.2 | 8.0 | 0.10 | 1.02 | 1.02 | 98 | 1008.8 |
| 20260509184039 | 6 | 119 | 3.2 | 8.0 | 0.10 | 1.02 | 1.02 | 98 | 1008.8 |
| 20260509183610 | 6 | 114 | 1.6 | 6.4 | 0.08 | 0.99 | 0.99 | 98 | 1008.8 |
| 20260509183050 | 6 | 91 | 1.6 | 6.4 | 0.10 | 0.99 | 0.99 | 98 | 1008.8 |
| 20260509182552 | 6 | 129 | 1.6 | 6.4 | 0.10 | 0.99 | 0.99 | 98 | 1008.9 |
| 20260509182027 | 6 | 101 | 3.2 | 9.7 | 0.08 | 0.97 | 0.97 | 98 | 1009.0 |
| 20260509181616 | 6 | 116 | 3.2 | 6.4 | 0.10 | 0.97 | 0.97 | 97 | 1009.0 |
| 20260509181030 | 6 | 101 | 3.2 | 9.7 | 0.10 | 0.97 | 0.97 | 98 | 1009.1 |
| 20260509180525 | 6 | 74 | 3.2 | 6.4 | 0.08 | 0.94 | 0.94 | 97 | 1009.1 |
| 20260509180116 | 5 | 112 | 3.2 | 9.7 | 0.08 | 0.94 | 0.94 | 97 | 1009.1 |
| 20260509175529 | 5 | 109 | 3.2 | 9.7 | 0.10 | 0.94 | 0.94 | 97 | 1009.0 |
| 20260509175115 | 5 | 107 | 4.8 | 11.3 | 0.10 | 0.94 | 0.94 | 97 | 1009.1 |
| 20260509174602 | 5 | 112 | 3.2 | 11.3 | 0.08 | 0.91 | 0.91 | 97 | 1009.1 |
| 20260509174111 | 5 | 85 | 4.8 | 8.0 | 0.10 | 0.91 | 0.91 | 97 | 1009.2 |
| 20260509173552 | 5 | 118 | 1.6 | 11.3 | 0.08 | 0.89 | 0.89 | 97 | 1009.4 |
| 20260509173031 | 5 | 122 | 4.8 | 11.3 | 0.10 | 0.89 | 0.89 | 97 | 1009.3 |
| 20260509172558 | 5 | 112 | 4.8 | 11.3 | 0.10 | 0.89 | 0.89 | 97 | 1009.4 |
| 20260509172042 | 5 | 97 | 4.8 | 11.3 | 0.13 | 0.89 | 0.89 | 97 | 1009.4 |
| 20260509171535 | 5 | 63 | 4.8 | 11.3 | 0.10 | 0.86 | 0.86 | 97 | 1009.5 |
| 20260509171032 | 5 | 105 | 4.8 | 12.9 | 0.10 | 0.86 | 0.86 | 97 | 1009.6 |
| 20260509170651 | 5 | 118 | 4.8 | 12.9 | 0.13 | 0.86 | 0.86 | 97 | 1009.6 |
| 20260509170045 | 5 | 141 | 6.4 | 11.3 | 0.13 | 0.86 | 0.86 | 97 | 1009.7 |
| 20260509165633 | 5 | 103 | 3.2 | 9.7 | 0.13 | 0.84 | 0.84 | 97 | 1009.6 |
| 20260509165046 | 5 | 91 | 3.2 | 9.7 | 0.13 | 0.84 | 0.84 | 97 | 1009.6 |